Location: Ar Ranvel
(48.3000°N, 4.8833°W)
Time: 20:49:09
(UTC+00:00)

Meteor 2-10 Rocket - Pass Details

Date: 29 October 2021
Orbit: 733 x 885 km, 81.2° (Epoch: 30 November)

Event Time Altitude Azimuth Distance (km) Brightness Sun altitude
Rises 18:49:53 0° 203° (SSW) 3,358 7.1 -17.9°
Reaches altitude 10° 18:52:23 10° 208° (SSW) 2,405 6.4 -18.3°
Maximum altitude 18:57:42 55° 286° (WNW) 955 4.3 -19.2°
Drops below altitude 10° 19:02:50 10° 4° (N) 2,325 6.0 -20.1°
Sets 19:05:13 0° 9° (N) 3,236 6.7 -20.5°
